Showing default

OPS 9334 (DATS), 2865

Orbit data source: Space-Track

OPS 9334 (DATS), 2865 is a payload satellite owned by SAMSO (US) in GEO that was launched on Sat, 01 Jul 1967 UTC via a TITAN IIIC launch vehicle from the Air Force Eastern Test Range (AFETR). Payload-class satellites include a variety of spacecraft equipped with specific instruments for various scientific and technological missions. These include communications satellites like Starlink; space stations such as the ISS; scientific satellites like the Hubble; Earth observation satellites from companies like Planet Labs, Umbra, and HawkEye 360; GPS; miniature CubeSats for education and research; and military/defense satellites.

Not visible in the next 10 days
Identifier
2865, 1967-066D
Orbit
GEO
Last TLE update
9 hours ago
Origin
Manufacturer
Philco-Ford WDL
Mission
Non-operational Defense Communications
Bus & Motor
IDCSP, Unknown motor
Mass
68 kg wet, 68 kg dry
Launch date (UTC)
1967-07-01 (58 years ago)
Launch vehicle
TITAN IIIC
Launch site
Air Force Eastern Test Range (AFETR)
Object type
Payload
Rocket body
Debris
Shape & HBR
Poly, Unknown HBR
Radar Cross Section
0.926 m², Medium (>0.1 m² and < 1m²)

Expand to show TLE details & history

TLE from 9 hours ago
0 OPS 9334 (DATS)
1 02865U 67066D   25128.89172322 -.00000093  00000-0  00000-0 0  9991
2 02865   1.8031 110.3790 0055285 203.9120 282.0096  1.09624696125737
Epoch: 2025-05-08T21:24Z
Definitive object data (Epoch: 2025-05-08T21:24:04.886Z)
Latitude
1.46207°
Longitude
47.71756°
Altitude
33,307.887 km
Speed
3.171 km/s
True Right ascension
15h 42m 46s
True Declination
1° 27' 38"
Sunlit
Object was in daylight at TLE epoch
Visualization TLE readout
Latitude
-1.7857°
Longitude
-167.96468°
Altitude
33,261.557 km
Speed
3.175 km/s
Apparent Right ascension
01h 26m 04s
Apparent Declination
-6° 48' 51"
Sunlit
Object is in daylight
Visualization observer readout
Local Sidereal Time
14:15:08
Azimuth
21.649° NNE
Elevation
-55.116°
Doppler factor
1
Orbital elements
Apogee altitude
33,573.66 km
Perigee altitude
33,134.342 km
Semi-major axis
39,732.138 km
Eccentricity
0.0055285
Inclination
1.8031°
RAAN
110.379°
Arg. of periapsis
203.912°
True anomaly
281.38907°
Mean anomaly
282.0096°
Eccentric anomaly
281.69942°
Mean motion
0.27405 °/min
BSTAR
Unknown
Orbital period
1313.63 mins
Loading historical data...
2865 neighbors
Loading maneuver chart data...
Loading SW <> Apogee altitude chart data...
Loading historical data...
Loading historical data...
Loading historical data...
Loading historical data...
Loading historical data...
Loading historical data...
Loading historical data...

OPS 9334 (DATS) Visibility forecast

Observer location: undefined°, undefined°

OPS 9334 (DATS) is not visible in the next 10 days
Span
Click to sort rows by Start time (UTC) header in descending order
Start Az.
Max El. time (UTC)
Max El. Az.
Max El.
End time (UTC)
End Az.
|